Knox, IN

12:02 AM CDT on March 27, 2017 (GMT -0500)
Starke County

Weather History for KOXI - November, 2011

Change the Weather History Date:

Thursday, November 24, 2011

  Actual Average (KSBN) Record (KSBN)
Temperature  
Mean Temperature 40 °F -  
Max Temperature 45 °F 43 °F 65 °F (1973)
Min Temperature 34 °F 29 °F -6 °F (1950)
Degree Days  
Heating Degree Days 26    
Moisture  
Dew Point 40 °F    
Average Humidity 94    
Maximum Humidity 99    
Minimum Humidity 87    
Precipitation  
Precipitation 0.00 in - - ()
Sea Level Pressure  
Sea Level Pressure 30.22 in    
Wind  
Wind Speed 12 mph (SSW)    
Max Wind Speed 20 mph    
Max Gust Speed 24 mph    
Visibility 5 miles    
Events      
Averages and records for this station are not official NWS values.
T = Trace of Precipitation, MM = Missing Value Source: NWS Daily Summary

Daily Weather History Graph

Daily Weather History Graph

Search for Another Location

Airport or City:

Trip Planner

Search our weather history database for the weather conditions in past years. The results will help you decide how hot, cold, wet, or windy it might be!

Date:

Astronomy

Nov. 24, 2011 Rise Set
Actual Time 6:45 AM CST 4:21 PM CST
Civil Twilight 6:14 AM CST 4:51 PM CST
Nautical Twilight 5:40 AM CST 5:25 PM CST
Astronomical Twilight 5:07 AM CST 5:58 PM CST
Moon 6:02 AM CST (11/24) 3:51 PM CST (11/24)
Length of Visible Light 10h 36m
Length of Day
9h 35m
Waning Crescent, 0% of the Moon is Illuminated
Nov 24
Waning Crescent
Nov 25
New
Dec 2
First Quarter
Dec 10
Full
Dec 17
Last Quarter

Hourly Weather History & Observations

Time (CST) Temp. Windchill Dew Point Humidity Pressure Visibility Wind Dir Wind Speed Gust Speed Precip Events Conditions
12:15 AM 34.9 °F 28.3 °F 34.3 °F 98% 30.23 in 1.5 mi SSW 8.1 mph - N/A   Mostly Cloudy
12:35 AM 36.0 °F 29.0 °F 35.2 °F 97% 30.23 in 0.5 mi SW 9.2 mph - N/A   Overcast
12:55 AM 36.5 °F 29.2 °F 35.8 °F 97% 30.22 in 0.5 mi SW 10.4 mph - N/A   Overcast
1:15 AM 36.5 °F 29.2 °F 36.0 °F 98% 30.23 in 0.5 mi SW 10.4 mph - N/A   Overcast
1:35 AM 36.5 °F 29.7 °F 36.0 °F 98% 30.24 in 0.2 mi SW 9.2 mph - N/A   Overcast
1:55 AM 36.5 °F 29.7 °F 36.0 °F 98% 30.24 in 0.2 mi SW 9.2 mph - N/A   Overcast
2:15 AM 36.7 °F 28.9 °F 36.1 °F 98% 30.24 in 0.2 mi SW 11.5 mph - N/A   Overcast
2:35 AM 36.9 °F 28.7 °F 36.5 °F 99% 30.23 in 0.5 mi SW 12.7 mph - N/A   Overcast
2:55 AM 37.2 °F 29.6 °F 36.7 °F 98% 30.24 in 0.5 mi SW 11.5 mph 16.1 mph N/A   Overcast
3:35 AM 37.6 °F 30.0 °F 37.2 °F 99% 30.24 in 0.8 mi SW 11.5 mph 18.4 mph N/A   Overcast
3:55 AM 37.9 °F 30.9 °F 37.4 °F 98% 30.25 in 0.8 mi SW 10.4 mph - N/A   Overcast
4:15 AM 38.3 °F 31.9 °F 37.8 °F 98% 30.24 in 1.8 mi SW 9.2 mph - N/A   Overcast
4:35 AM 38.7 °F 32.4 °F 38.1 °F 98% 30.24 in 2.0 mi SW 9.2 mph - N/A   Overcast
4:55 AM 39.0 °F 31.0 °F 38.5 °F 98% 30.25 in 2.5 mi SW 13.8 mph - N/A   Overcast
5:15 AM 39.4 °F 31.4 °F 38.8 °F 98% 30.24 in 2.5 mi SW 13.8 mph 18.4 mph N/A   Overcast
5:35 AM 39.6 °F 31.7 °F 39.2 °F 99% 30.24 in 3.0 mi SW 13.8 mph 18.4 mph N/A   Overcast
5:55 AM 39.7 °F 31.9 °F 39.2 °F 98% 30.25 in 4.0 mi SW 13.8 mph - N/A   Overcast
6:15 AM 40.1 °F 33.2 °F 39.4 °F 97% 30.24 in 4.0 mi SW 11.5 mph 18.4 mph N/A   Overcast
6:35 AM 40.3 °F 33.0 °F 39.6 °F 97% 30.25 in 5.0 mi SW 12.7 mph - N/A   Overcast
6:55 AM 40.5 °F 34.6 °F 39.7 °F 97% 30.25 in 4.0 mi SW 9.2 mph 18.4 mph N/A   Overcast
7:15 AM 40.8 °F 34.5 °F 39.9 °F 97% 30.25 in 3.0 mi SW 10.4 mph - N/A   Overcast
7:35 AM 41.0 °F 33.5 °F 40.1 °F 97% 30.25 in 4.0 mi SW 13.8 mph 18.4 mph N/A   Overcast
7:55 AM 41.0 °F 33.1 °F 40.1 °F 97% 30.25 in 5.0 mi SW 15.0 mph 20.7 mph N/A   Overcast
8:15 AM 41.2 °F 33.4 °F 40.1 °F 96% 30.26 in 5.0 mi SW 15.0 mph 20.7 mph N/A   Overcast
8:35 AM 41.4 °F 34.7 °F 40.3 °F 96% 30.26 in 4.0 mi SW 11.5 mph - N/A   Overcast
8:55 AM 41.5 °F 33.8 °F 40.5 °F 96% 30.26 in 3.0 mi SSW 15.0 mph 18.4 mph N/A   Overcast
9:15 AM 41.9 °F 35.0 °F 40.6 °F 95% 30.26 in 4.0 mi SSW 12.7 mph 19.6 mph N/A   Overcast
9:35 AM 42.1 °F 35.7 °F 40.6 °F 95% 30.26 in 5.0 mi SSW 11.5 mph - N/A   Overcast
9:55 AM 42.3 °F 34.4 °F 40.8 °F 95% 30.27 in 5.0 mi SW 16.1 mph 19.6 mph N/A   Overcast
10:35 AM 42.8 °F 34.3 °F 41.0 °F 93% 30.25 in 7.0 mi SW 19.6 mph 23.0 mph N/A   Overcast
10:55 AM 43.2 °F 36.2 °F 41.0 °F 92% 30.25 in 7.0 mi SSW 13.8 mph - N/A   Overcast
11:15 AM 43.2 °F 35.9 °F 41.0 °F 92% 30.24 in 7.0 mi SSW 15.0 mph - N/A   Overcast
11:35 AM 43.5 °F 36.7 °F 41.0 °F 91% 30.24 in 7.0 mi SSW 13.8 mph 21.9 mph N/A   Overcast
11:55 AM 43.9 °F 36.2 °F 41.2 °F 90% 30.22 in 7.0 mi SSW 17.3 mph 20.7 mph N/A   Overcast
12:15 PM 44.4 °F 38.2 °F 41.5 °F 90% 30.22 in 5.0 mi SSW 12.7 mph - N/A   Overcast
12:35 PM 44.6 °F 38.1 °F 41.7 °F 90% 30.22 in 7.0 mi SSW 13.8 mph 18.4 mph N/A   Overcast
12:55 PM 45.0 °F 38.2 °F 41.9 °F 89% 30.22 in 7.0 mi South 15.0 mph 21.9 mph N/A   Overcast
1:15 PM 45.1 °F 38.4 °F 41.9 °F 88% 30.20 in 10.0 mi South 15.0 mph 18.4 mph N/A   Overcast
1:35 PM 45.3 °F 39.0 °F 41.9 °F 88% 30.20 in 10.0 mi SSW 13.8 mph 21.9 mph N/A   Overcast
1:55 PM 45.5 °F 38.6 °F 41.9 °F 87% 30.20 in 10.0 mi SSW 16.1 mph 24.2 mph N/A   Overcast
2:15 PM 45.7 °F 38.6 °F 42.1 °F 87% 30.20 in 10.0 mi SSW 17.3 mph 21.9 mph N/A   Overcast
2:35 PM 45.7 °F 39.1 °F 41.9 °F 87% 30.19 in 10.0 mi SSW 15.0 mph - N/A   Overcast
2:55 PM 45.5 °F 38.9 °F 41.9 °F 87% 30.19 in 10.0 mi SSW 15.0 mph - N/A   Overcast
3:15 PM 45.3 °F 39.0 °F 41.7 °F 87% 30.18 in 10.0 mi SSW 13.8 mph 18.4 mph N/A   Overcast
3:35 PM 45.3 °F 39.0 °F 41.7 °F 87% 30.18 in 10.0 mi SSW 13.8 mph - N/A   Overcast
3:55 PM 45.3 °F 38.7 °F 41.9 °F 88% 30.18 in 10.0 mi SSW 15.0 mph - N/A   Overcast
4:15 PM 44.8 °F 39.0 °F 41.4 °F 88% 30.17 in 10.0 mi SSW 11.5 mph 18.4 mph N/A   Mostly Cloudy
4:35 PM 44.1 °F 38.1 °F 41.2 °F 90% 30.17 in 10.0 mi SSW 11.5 mph - N/A   Mostly Cloudy
4:55 PM 43.9 °F 37.9 °F 41.2 °F 90% 30.16 in 10.0 mi South 11.5 mph 18.4 mph N/A   Scattered Clouds
5:15 PM 43.5 °F 36.7 °F 41.0 °F 91% 30.17 in 10.0 mi South 13.8 mph 18.4 mph N/A   Mostly Cloudy
5:35 PM 43.0 °F 37.2 °F 40.6 °F 91% 30.17 in 7.0 mi South 10.4 mph - N/A   Scattered Clouds
5:55 PM 42.4 °F 36.1 °F 40.5 °F 93% 30.17 in 7.0 mi SSW 11.5 mph - N/A   Clear
6:15 PM 42.1 °F 35.7 °F 40.3 °F 93% 30.16 in 7.0 mi SSW 11.5 mph - N/A   Clear
7:35 PM 41.5 °F 34.2 °F 40.1 °F 95% 30.15 in 7.0 mi South 13.8 mph 17.3 mph N/A   Clear
7:55 PM 41.4 °F 34.3 °F 39.9 °F 95% 30.15 in 7.0 mi SSW 12.7 mph - N/A   Clear
8:15 PM 41.2 °F 34.1 °F 39.7 °F 95% 30.15 in 7.0 mi South 12.7 mph - N/A   Clear
8:35 PM 41.2 °F 33.4 °F 39.6 °F 94% 30.14 in 7.0 mi South 15.0 mph 19.6 mph N/A   Clear
8:55 PM 41.0 °F 34.3 °F 39.4 °F 94% 30.14 in 7.0 mi SSW 11.5 mph - N/A   Clear
9:15 PM 40.6 °F 34.3 °F 39.2 °F 95% 30.14 in 10.0 mi SSW 10.4 mph - N/A   Clear
9:55 PM 40.3 °F 33.4 °F 38.8 °F 95% 30.13 in 10.0 mi SSW 11.5 mph 16.1 mph N/A   Clear
10:15 PM 40.1 °F 32.7 °F 38.8 °F 95% 30.13 in 7.0 mi SSW 12.7 mph - N/A   Clear
10:35 PM 40.1 °F 33.2 °F 38.7 °F 95% 30.12 in 7.0 mi SSW 11.5 mph - N/A   Clear
10:55 PM 39.7 °F 33.2 °F 38.5 °F 95% 30.12 in 7.0 mi SSW 10.4 mph 18.4 mph N/A   Scattered Clouds
11:15 PM 39.6 °F 32.5 °F 38.3 °F 95% 30.12 in 7.0 mi SSW 11.5 mph - N/A   Clear
11:35 PM 39.4 °F 33.2 °F 37.9 °F 95% 30.13 in 7.0 mi SSW 9.2 mph - N/A   Clear
11:55 PM 39.0 °F 33.4 °F 37.8 °F 95% 30.13 in 7.0 mi SSW 8.1 mph - N/A   Clear